User: anonymous   Login
Location: Smithers
(54.7670°N, 127.1670°W)
Time: 17:54:06
(UTC-07:00)
Language:

ERBS - Orbit

View from above orbital plane
View from above orbital plane
View from above satellite
View from above satellite

Ground track
Ground track

The orbit data is extracted from the following two-line orbital elements,

1 15354U 84108B   17113.92484843 +.00008531 +00000-0 +19705-3 0  9996
2 15354 057.0099 011.9580 0012729 028.7144 331.4610 15.43340709789559
Epoch (UTC): 23 April 2017 22:11:46
Eccentricity: 0.0012729
inclination: 57.0099°
perigee height: 427 km
apogee height: 445 km
right ascension of ascending node: 11.9580°
argument of perigee: 28.7144°
revolutions per day: 15.43340709
mean anomaly at epoch: 331.4610°
orbit number at epoch: 78955

The dashed part of the orbit path shows where the satellite is in the earth's shadow,  

DLR